ATLAS 5 CENTAUR R/B, 43652

Orbit data source: Space-Track

ATLAS 5 CENTAUR R/B, 43652 is space debris in HEO originally from a launch on Wed, 17 Oct 2018 UTC launched from the Air Force Eastern Test Range (AFETR). Debris objects in space refer to the collection of defunct objects orbiting the Earth. Examples of debris include non-operational satellites, rocket bodies, and fragments generated from explosions, collisions, or faulty payload assembly.

Loading next visibility...
Identifier
43652, 2018-079B
Orbit
HEO
Country
Flag of USUS
Related business
Flag of USUnited Launch Alliance/Lockheed Martin (US)
Manufacturer
ULA Decatur
Mission
Spacecraft
Bus & Motor
CENTAUR SEC, RL10C-1
Mass
~2,020 kg wet, 2,020 kg dry
Launch date (UTC)
2018-10-17 (8 years ago)
Launch vehicle
Unknown
Launch site
Air Force Eastern Test Range (AFETR)
Object type
Payload
Rocket body
Debris
Shape & HBR
Cyl + 1 Nozzle, 5.8 m
Radar Cross Section
32.260 m², Large (>1 m²)

Expand to show TLE details & history
Last TLE update: 14 hours ago

TLE from 14 hours ago
0 ATLAS 5 CENTAUR R/B
1 43652U 18079B   26235.45746420 -.00000184  00000-0  00000-0 0  9999
2 43652  13.3861  23.9354 4705835 340.1252   6.2743  1.84080867 49286
Epoch: 2026-08-23T10:58Z
TLE epoch observation values (Epoch: 2026-08-23T10:58:44.906Z)
Latitude
0.00001°
Longitude
-112.47331°
Altitude
8,798.451 km
Speed
6.193 km/s
True Right ascension
01h 35m 52s
True Declination
0° 00' 00"
Sunlit
Object was in daylight at epoch
Visualization orbit readout
Latitude
Unknown
Longitude
Unknown
Altitude
Unknown
Speed
Unknown
Apparent Right ascension
Unknown
Apparent Declination
Unknown
Sunlit
N/A
Visualization observer readout
Local Sidereal Time
16:21:18
Azimuth
Unknown
Elevation
Unknown
Doppler factor
Unknown
Orbital elements
Apogee altitude
34,982.295 km
Perigee altitude
8,511.8 km
Semi-major axis
28,125.185 km
Eccentricity
0.47058
Inclination
13.3861°
RAAN
23.9354°
Arg. of periapsis
340.1252°
True anomaly
19.50825°
Mean anomaly
6.2743°
Eccentric anomaly
11.77778°
Mean motion
0.46015 °/min
Orbital period
782.35 mins
BSTAR
0
Loading maneuver chart data...
Computing Atmospheric mass density...

Documentation

Showing up to 5 results
|